Погода Бузаубай

Погода Бузаубай : погода сейчас, прогноз погоды и архив. Всё, что Вы хотите узнать о погоде Бузаубай!

Хотите узнать прогноз погоды Бузаубай? Тогда Вам сюда: Погода Бузаубай

Поиск расширенной информации на нашем сайте:

Другие новости

Новости СМИ2

Главная страница сайта

Новости сайта

02.10.2013

Напоминаем, что на нашем новом сайте вы можете получить высокодетализированные прогнозы погоды по пунктам России, СНГ и мира (включающие важные для авиации метеовеличины, такие как направление и скорость ветра, видимость, явления погоды, количество и форма облачности, нижняя и верхняя граница облачности), а также ознакомиться с разнообразными материалами по авиационной метеорологии и подборкой полезных ссылок на эту тему.

Сайт Метеоцентр.Азия посвящён разработке технологий оптимизации авиаметеорологического обслуживания, включая проектирование и перспективное создание нескольких автоматизированных авиаметеорологических систем:
- система выпуска высокодетальных прогностических карт явлений погоды для нижнего воздушного пространства по России и ближнему зарубежью;
- система верификации прогнозов TAF (выпускаемых синоптиками официальных АМСГ РФ и ближнего зарубежья) и AUTOTAF (выпускаемых сайтом Метеоцентр.Азия) - выявление ошибок, онлайн-сопоставление с фактической погодой METAR, автоматическое внесение коррективов в прогнозы при резком отклонении фактической погоды от прогноза, подсчёт оправдываемости прогнозов по элементам и в целом;
- система обработки, анализа и отображения авиаметеорологической информации для применения провайдерами метеорологической информации.


Погода Бузаубай - сегодня

Время (UTC), дата Ветер
(°,м/с) 
Видим.   Явления Облачность Т
(°С)
Тd
(°С)
f(%) Тe
(°С)
Pmin
(гПа)
dP
(гПа)
Po
(мм)
O2
(г/м3)
Тmin Tmax R s Состояние
почвы
18 22.03.17 060 (СВ) н/о  {дождь}  10/0 
[Sc]
+11.8 +4 59 +12  1014.9  -1  752  290    +16.8     
21 22.03.17 010 (С) н/о  дождь  10/10 1000 м 
[Sc]
+11 +5.1 67 +11  1014.4  -0.5  752  290           
00 23.03.17 250 (З) н/о  {дождь}  10/0 
[Sc]
+10 +5 71 +10  1015.6  1.2  753  292           
06 23.03.17 250 (З) 10 км    10/10 600 м 
[Sc]
+10.3 +2.9 60 +9  1019.8  3.3  756  293  +9.8    10     
09 23.03.17 270 (З) 4000 м    8/0 
[Cu med, cong]
+12.4 +4 56 +12  1020.9  1.2  757  291           
12 23.03.17 250 (З) 10 км    9/9 1000 м 
[Cu med, cong]
+12.3 +0.6 45 +12  1020.6  -0.3  757  292           
15 23.03.17 360 (С) н/о    10/10 1000 м 
[Sc]
+11 +0 47 +11  1020.3  -0.4  756  293    +12.8       
18 23.03.17 060 (СВ) н/о    10/0 средняя 
[Ac As]
+9 -0.9 50 +9  1020.8  0.4  757  295    +12.8       
21 23.03.17 060 (СВ) н/о    9/0 средняя 
[Ac As]
+8.5 -1.4 50 +8  1021.5  0.7  757  296           
00 24.03.17 360 (С) н/о    10/10 1000 м 
[Sc]
+7.3 -1.2 55 +6  1022.2  0.6  758  297           
03 24.03.17 360 (С) 10 км    10/10 1000 м 
[Sc]
+6.6 -0.4 61 +5  1021.1  -1.1  757  298           
06 24.03.17 320 (СЗ) 10 км    10/10 1000 м 
[Sc]
+7.8 -0.5 56 +7  1020.6  -0.5  756  296  +6.6         
09 24.03.17 320 (СЗ) 10 км    9/9 1000 м 
[Cu med, cong]
+9 -0.9 50 +8  1020.9  0.4  757  295           
12 24.03.17 320 (СЗ) 10 км    9/9 1000 м 
[Cu med, cong]
+8.4 -2.7 45 +7  1021.4  0.5  757  296           
15 24.03.17 060 (СВ) н/о    10/10 1000 м 
[Sc]
+8.2 -2.2 48 +8  1022  0.6  758  297    +9.2       
18 24.03.17 060 (СВ) н/о    9/9 1000 м 
[Sc]
+7.1 -2.5 50 +5  1022.6  0.5  758  298    +9.2       
21 24.03.17 060 (СВ) н/о    10/10 1000 м 
[Sc]
+6.5 -0.9 59 +6  1023.3  0.7  758  299         
00 25.03.17 060 (СВ) н/о  слаб. дождь  10/10 1000 м 
[Sc]
+5 -0.6 67 +5  1023.8  0.4  759  300           
03 25.03.17 060 (СВ) 10 км    10/10 1000 м 
[Sc]
+4.8 -0.2 70 +4  1023.3  -0.5  758  300         
06 25.03.17 тихо ()   10 км    9/9 1000 м 
[Sc]
+5.6 -1.4 61 +6  1022.7  -0.6  758  299  +4.8       
09 25.03.17 360 (С) 10 км    10/10 1000 м 
[Sc]
+6.2 -3.8 49 +7  1021.7  -0.9  757  299           
12 25.03.17 290 (З) 10 км    10/10 1000 м 
[Sc]
+6.8 -2.9 50 +7  1021.2  -0.5  757  298           
15 25.03.17 310 (СЗ) н/о    10/10 1000 м 
[Sc]
+6.3 -2.5 53 +7  1021.1  -0.1  757  298    +7.2       
18 25.03.17 320 (СЗ) н/о    10/10 1000 м 
[Sc]
+5.7 -2.7 55 +7  1022.8  1.6  758  299    +7.2       
21 25.03.17 300 (СЗ) н/о    10/10 50 м 
[Sc]
+5.1 -2.4 58 +6  1021.4  -1.1  757  300           
Время (UTC), дата Ветер
(°,м/с) 
Видим.   Явления Облачность Т
(°С)
Тd
(°С)
f(%) Тe
(°С)
Pmin
(гПа)
dP
(гПа)
Po
(мм)
O2
(г/м3)
Тmin Tmax R s Состояние
почвы

Для получения пояснительной информации подведите курсор к названию столбца.

ПОГОДА Бузаубай - архив

Всё, что Вы хотите узнать о погоде Бузаубай - удобно и подробно!

Выберите нужную дату (начиная с 1 января 2015* года) и нажмите кнопку "Найти".
Будут отображены архивные сводки погоды по пункту Бузаубай, начиная с указанной даты.


Отображать данные в формате CSV (для использования в таблицах Excel)


Внимание! Наш архив погоды предназначен исключительно для личного некоммерческого использования в познавательных целях. Если Вам необходимы официальные справки о состоянии погоды (для производственных, юридических, коммерческих и т.п. целей), обращайтесь в органы Росгидромета.

*Примечание: данная дата относится к архиву по метеостанциям СССР (Россия, СНГ, Балтия).
Архив по метеостанциям Зарубежной Европы и Азии (кроме Китая) хранится 10 дней, по другим регионам земного шара (Китай, Африка, Америка, Австралия, Океания) - 1 день.

Бузаубай - район местоположения метеостанции


Название, широта, долгота, высота метеостанции:
Бузаубай 41.8°ш. 62.5°д. 98 м над ур. моря [Узбекистан]

Дополнительная информация

В oтличие oт бoльшинства пoгoдных сайтoв мы публикуем пoдрoбную метеoинфoрмацию в детальнoм прoфессиoнальнoм фoрмате.

Характеристики температуры и влажнoсти вoздуха измеряются на высoте 2 м в тени вдали oт зданий и деревьев.
Скoрoсть ветра измеряется на высoте 10 м (на урoвне рoста челoвека скoрoсть ветра ниже в 1.5-2 раза). Если метеoстанция нахoдится в гoрoде или в лесу, тo скoрoсть ветра занижена на 2-4 м/с пo сравнению с oткрытым местoм. Скoрoсть ветра над акватoриями крупных рек и oзёр, а также на вершинах хoлмoв на 2-5 м/с выше, чем в oбычных услoвиях.
Атмoсфернoе давление в разных тoчках местнoсти мoжет значительнo oтличаться oт давления на метеoстанции, в зависимoсти oт услoвий рельефа (при пoдъёме на 10 м давление пoнижается примернo на 1 мм рт.ст.).